Вернуться в каталог

SWARM C

АктивенНаукаPO
NORAD 39453·PAYLOAD·🇪🇺 EU

Запущен Nov 22, 2013 с Plesetsk Cosmodrome

Loading…

Ближайшие Пролёты (ближайшие 24 часа)

TLE

СвежийSource: CelesTrak SupGP

Эпоха: Sep 14, 2026, 00:00 UTC

1 39453C 13067C   26257.00000000  .00009691  00000+0  16889-3 0  2579
2 39453  87.3361  21.8245 0002429 111.6715 155.3581 15.50748708    19

Отслеживайте SWARM C в реальном времени с AllMySat

Download on the App Store